Flag for India Weather past 2 weeks in Mumbai, Maharashtra, India

Now
82 °F

Partly cloudy.


Feels Like: 91 °F
Forecast: 83 / 85 °F
Wind: 12 mph from West

Location: Bombay / Santacruz

Current Time: Jul 31, 2015 at 2:40:35 AM

Latest Report: Jul 31, 2015 at 2:10 AM


Visibility: 2 mi

Pressure: 29.74 "Hg

Humidity: 84%

Dew point: 77 °F

Location of MumbaiLocation

Historic Weather in Mumbai — Graph

°F

Mumbai temperature yesterday

Maximum temperature yesterday: 86 °F (at 2:10 PM)
Minimum temperature yesterday: 79 °F (at 6:10 AM)
Average temperature yesterday: 82 °F

Past Weeks' High & Low Weather Summary

 TemperatureHumidityPressure
High91 °F (Jul 19, 3:40 PM)100% (Jul 21, 8:40 AM)29.80 "Hg (Jul 21, 8:40 AM)
Low77 °F (Jul 21, 8:40 AM)63% (Jul 19, 3:40 PM)29.53 "Hg (Jul 16, 3:40 PM)
Average83 °F84%29.66 "Hg
* Reported Jul 16 12:40 AM — Jul 31 1:10 AM, Mumbai, Weather by CustomWeather, © 2015

Note: Actual official high and low records may vary slightly from our data, if they occured in-between our weather recording intervals... More about our weather records

Advertising

Mumbai weather history for previous 24 hours

 ConditionsComfort  
Time TempWeatherWind HumidityBarometerVisibility
1:10 AM
Fri, Jul 31
82 °FPartly cloudy.10 mph84%29.77 "Hg2 mi
12:40 AM82 °FPartly cloudy.9 mph84%29.77 "Hg2 mi
12:10 AM82 °FPartly cloudy.10 mph89%29.77 "Hg2 mi
11:40 PM
Thu, Jul 30
82 °FPartly cloudy.13 mph84%29.77 "Hg2 mi
11:10 PM82 °FPartly cloudy.10 mph89%29.80 "Hg1 mi
10:40 PM81 °FLight rain. Partly cloudy.12 mph89%29.80 "Hg1 mi
9:40 PM81 °FPartly cloudy.8 mph89%29.77 "Hg1 mi
9:10 PM81 °FPartly cloudy.12 mph89%29.77 "Hg1 mi
8:40 PM82 °FPartly cloudy.10 mph84%29.77 "Hg1 mi
8:10 PM82 °FPartly cloudy.9 mph84%29.74 "Hg1 mi
7:40 PM81 °FBroken clouds.6 mph89%29.77 "Hg1 mi
6:40 PM79 °FLight rain. Broken clouds.9 mph89%29.74 "Hg1 mi
5:40 PM86 °FBroken clouds.13 mph75%29.74 "Hg2 mi
5:10 PM84 °FBroken clouds.8 mph79%29.74 "Hg2 mi
4:40 PM84 °FBroken clouds.10 mph79%29.74 "Hg2 mi
4:10 PM84 °FBroken clouds.8 mph79%29.74 "Hg2 mi
3:40 PM84 °FBroken clouds.9 mph79%29.74 "Hg2 mi
3:10 PM84 °FBroken clouds.8 mph79%29.74 "Hg2 mi
2:40 PM84 °FBroken clouds.13 mph79%29.77 "Hg2 mi
2:10 PM86 °FBroken clouds.12 mph75%29.77 "Hg2 mi
1:40 PM84 °FBroken clouds.10 mph79%29.77 "Hg2 mi
1:10 PM84 °FBroken clouds.16 mph79%29.77 "Hg2 mi
12:40 PM84 °FBroken clouds.13 mph84%29.77 "Hg2 mi
12:10 PM84 °FMore clouds than sun.8 mph79%29.80 "Hg2 mi
11:40 AM82 °FMore clouds than sun.10 mph84%29.80 "Hg2 mi
10:40 AM82 °FLight rain. Broken clouds.12 mph84%29.80 "Hg1 mi
10:10 AM82 °FBroken clouds.10 mph79%29.80 "Hg2 mi
9:40 AM82 °FBroken clouds.13 mph84%29.80 "Hg2 mi
9:10 AM82 °FBroken clouds.10 mph84%29.80 "Hg2 mi
8:40 AM82 °FBroken clouds.8 mph84%29.77 "Hg2 mi
8:10 AM81 °FBroken clouds.13 mph89%29.77 "Hg2 mi
7:10 AM81 °FScattered showers. More clouds than sun.13 mph89%29.77 "Hg2 mi
6:40 AM81 °FMostly cloudy.15 mph89%29.74 "Hg2 mi
6:10 AM79 °FMostly cloudy.7 mph94%29.74 "Hg1 mi
5:10 AM81 °FPartly cloudy.10 mph84%29.74 "Hg1 mi
4:40 AM81 °FPartly cloudy.14 mph84%29.71 "Hg1 mi
4:10 AM81 °FPartly cloudy.13 mph89%29.71 "Hg1 mi
3:40 AM81 °FPartly cloudy.12 mph84%29.71 "Hg1 mi
3:10 AM82 °FPartly cloudy.12 mph84%29.74 "Hg1 mi
2:40 AM82 °FPartly cloudy.14 mph84%29.74 "Hg1 mi
Weather by CustomWeather, © 2015

See weather overviewHow to use our weather pages